1998-067IA

Last updated on Wed May 18 2016 18:36:27 GMT+0100 (British Summer Time)

1 41480U 98067IA 16139.46459569 .00088076 00000-0 12670-2 0 9992 2 41480 51.6417 206.3048 0001733 205.6815 280.0574 15.55311610 179

Satellite not in orbit